QPF
0.00 0.00 0.00 0.00 0.01 0.02 0.03 0.04 0.06 0.05 0.03 0.03 0.02 0.03 0.04 0.04 0.06 0.06 0.06 0.06 0.06 0.06 0.06 0.06 0.07 0.08 0.09 0.10 0.11 0.11 0.12 0.13 0.11 0.11 0.09 0.07 0.10 0.14 0.15 0.13 0.12 0.12 0.08
0.00 0.01 0.00 0.00 0.01 0.02 0.02 0.02 0.04 0.04 0.03 0.03 0.03 0.03 0.05 0.04 0.05 0.05 0.04 0.03 0.04 0.04 0.04 0.05 0.05 0.06 0.07 0.08 0.09 0.08 0.10 0.12 0.12 0.12 0.10 0.09 0.09 0.10 0.12 0.13 0.11 0.10 0.09
0.00 0.00 0.00 0.00 0.01 0.01 0.01 0.02 0.02 0.03 0.04 0.04 0.04 0.04 0.05 0.06 0.07 0.06 0.05 0.04 0.05 0.05 0.04 0.03 0.04 0.05 0.06 0.06 0.06 0.06 0.07 0.08 0.11 0.11 0.08 0.08 0.09 0.09 0.10 0.11 0.10 0.11 0.10
0.00 0.00 0.00 0.01 0.01 0.01 0.01 0.02 0.03 0.03 0.03 0.04 0.04 0.03 0.04 0.05 0.05 0.06 0.07 0.06 0.05 0.05 0.04 0.04 0.05 0.05 0.06 0.06 0.06 0.06 0.06 0.07 0.09 0.10 0.08 0.07 0.06 0.08 0.10 0.11 0.11 0.10 0.10
0.00 0.00 0.00 0.00 0.01 0.02 0.01 0.02 0.03 0.03 0.03 0.03 0.03 0.03 0.04 0.04 0.04 0.05 0.06 0.05 0.04 0.05 0.05 0.06 0.06 0.05 0.05 0.06 0.06 0.06 0.07 0.07 0.08 0.08 0.08 0.08 0.07 0.07 0.08 0.08 0.10 0.11 0.11
0.00 0.00 0.00 0.00 0.00 0.00 0.01 0.02 0.02 0.03 0.03 0.02 0.02 0.04 0.05 0.03 0.02 0.04 0.06 0.05 0.03 0.03 0.05 0.06 0.07 0.06 0.05 0.06 0.07 0.07 0.07 0.07 0.07 0.08 0.08 0.08 0.08 0.08 0.08 0.09 0.10 0.10 0.12
0.00 0.00 0.00 0.00 0.00 0.00 0.00 0.01 0.02 0.02 0.02 0.01 0.01 0.02 0.03 0.02 0.01 0.01 0.03 0.05 0.05 0.04 0.05 0.05 0.06 0.05 0.05 0.05 0.06 0.07 0.08 0.08 0.08 0.09 0.09 0.08 0.09 0.10 0.12 0.12 0.12 0.11 0.11
0.00 0.00 0.00 0.00 0.00 0.00 0.00 0.01 0.02 0.03 0.02 0.01 0.01 0.01 0.01 0.01 0.01 0.01 0.02 0.05 0.06 0.05 0.06 0.06 0.06 0.06 0.04 0.05 0.05 0.06 0.07 0.05 0.05 0.07 0.09 0.10 0.12 0.13 0.16 0.17 0.17 0.15 0.15
0.00 0.00 0.00 0.00 0.00 0.00 0.00 0.01 0.01 0.02 0.02 0.01 0.01 0.01 0.00 0.00 0.01 0.01 0.02 0.03 0.05 0.05 0.06 0.06 0.06 0.05 0.04 0.05 0.06 0.06 0.06 0.06 0.06 0.07 0.10 0.12 0.16 0.18 0.18 0.18 0.18 0.17 0.18
0.00 0.00 0.00 0.00 0.00 0.00 0.00 0.00 0.00 0.01 0.02 0.01 0.01 0.00 0.00 0.00 0.00 0.01 0.02 0.03 0.04 0.03 0.05 0.06 0.04 0.03 0.03 0.05 0.07 0.08 0.06 0.07 0.08 0.07 0.07 0.09 0.13 0.17 0.19 0.17 0.16 0.15 0.14
0.00 0.00 0.00 0.00 0.00 0.00 0.00 0.00 0.00 0.00 0.01 0.02 0.01 0.00 0.00 0.00 0.00 0.01 0.01 0.02 0.02 0.03 0.04 0.05 0.04 0.03 0.03 0.03 0.04 0.07 0.09 0.09 0.10 0.10 0.07 0.08 0.12 0.15 0.13 0.15 0.17 0.16 0.13
0.00 0.00 0.00 0.00 0.00 0.00 0.00 0.00 0.00 0.00 0.00 0.01 0.02 0.01 0.01 0.01 0.01 0.01 0.01 0.01 0.02 0.02 0.02 0.02 0.03 0.03 0.02 0.02 0.03 0.04 0.07 0.09 0.09 0.11 0.09 0.09 0.13 0.15 0.12 0.12 0.12 0.13 0.13
0.00 0.00 0.00 0.00 0.00 0.00 0.00 0.00 0.00 0.00 0.00 0.00 0.00 0.01 0.01 0.01 0.01 0.02 0.02 0.02 0.02 0.02 0.02 0.02 0.02 0.02 0.03 0.03 0.04 0.04 0.05 0.07 0.08 0.07 0.06 0.07 0.10 0.13 0.10 0.08 0.07 0.08 0.09
0.00 0.00 0.00 0.00 0.00 0.00 0.00 0.00 0.00 0.00 0.00 0.00 0.00 0.00 0.00 0.00 0.00 0.01 0.01 0.01 0.01 0.02 0.02 0.01 0.02 0.02 0.02 0.02 0.03 0.03 0.03 0.04 0.04 0.04 0.04 0.04 0.04 0.06 0.07 0.07 0.06 0.05 0.06
0.00 0.00 0.00 0.00 0.00 0.00 0.00 0.00 0.00 0.00 0.00 0.00 0.00 0.00 0.00 0.00 0.00 0.00 0.00 0.00 0.00 0.01 0.01 0.01 0.02 0.02 0.02 0.02 0.02 0.02 0.02 0.02 0.02 0.02 0.02 0.03 0.03 0.04 0.05 0.06 0.06 0.04 0.04
0.00 0.00 0.00 0.00 0.00 0.00 0.00 0.00 0.00 0.00 0.00 0.00 0.00 0.00 0.00 0.00 0.00 0.00 0.00 0.00 0.00 0.00 0.00 0.00 0.01 0.01 0.02 0.02 0.02 0.02 0.01 0.02 0.02 0.01 0.01 0.02 0.03 0.03 0.04 0.04 0.05 0.05 0.04
0.00 0.00 0.00 0.00 0.00 0.00 0.00 0.00 0.00 0.00 0.00 0.00 0.00 0.00 0.00 0.00 0.00 0.00 0.00 0.00 0.00 0.00 0.00 0.00 0.00 0.00 0.01 0.01 0.02 0.03 0.02 0.02 0.02 0.02 0.02 0.02 0.02 0.02 0.02 0.03 0.03 0.04 0.03
0.00 0.00 0.00 0.00 0.00 0.00 0.00 0.00 0.00 0.00 0.00 0.00 0.00 0.00 0.00 0.00 0.00 0.00 0.00 0.00 0.00 0.00 0.00 0.00 0.00 0.00 0.00 0.01 0.01 0.02 0.02 0.02 0.02 0.02 0.01 0.01 0.02 0.02 0.02 0.02 0.02 0.02 0.03
0.00 0.00 0.00 0.00 0.00 0.00 0.00 0.00 0.00 0.00 0.00 0.00 0.00 0.00 0.00 0.00 0.00 0.00 0.00 0.00 0.00 0.00 0.00 0.00 0.00 0.00 0.00 0.00 0.00 0.01 0.01 0.02 0.02 0.02 0.01 0.01 0.02 0.02 0.01 0.02 0.01 0.01 0.02
0.00 0.00 0.00 0.00 0.00 0.00 0.00 0.00 0.00 0.00 0.00 0.00 0.00 0.00 0.00 0.00 0.00 0.00 0.00 0.00 0.00 0.00 0.00 0.00 0.00 0.00 0.00 0.00 0.00 0.00 0.01 0.01 0.02 0.02 0.02 0.01 0.01 0.01 0.01 0.01 0.01 0.01 0.01
0.00 0.00 0.00 0.00 0.00 0.00 0.00 0.00 0.00 0.00 0.00 0.00 0.00 0.00 0.00 0.00 0.00 0.00 0.00 0.00 0.00 0.00 0.00 0.00 0.00 0.00 0.00 0.00 0.00 0.00 0.00 0.00 0.01 0.01 0.02 0.02 0.02 0.01 0.01 0.01 0.01 0.01 0.01
0.00 0.00 0.00 0.00 0.00 0.00 0.00 0.00 0.00 0.00 0.00 0.00 0.00 0.00 0.00 0.00 0.00 0.00 0.00 0.00 0.00 0.00 0.00 0.00 0.00 0.00 0.00 0.00 0.00 0.00 0.00 0.00 0.00 0.01 0.01 0.02 0.01 0.01 0.01 0.01 0.01 0.01 0.01
0.00 0.00 0.00 0.00 0.00 0.00 0.00 0.00 0.00 0.00 0.00 0.00 0.00 0.00 0.00 0.00 0.00 0.00 0.00 0.00 0.00 0.00 0.00 0.00 0.00 0.00 0.00 0.00 0.00 0.00 0.00 0.00 0.00 0.00 0.01 0.01 0.02 0.01 0.01 0.01 0.01 0.01 0.01
0.00 0.00 0.00 0.00 0.00 0.00 0.00 0.00 0.00 0.00 0.00 0.00 0.00 0.00 0.00 0.00 0.00 0.00 0.00 0.00 0.00 0.00 0.00 0.00 0.00 0.00 0.00 0.00 0.01 0.00 0.00 0.00 0.00 0.00 0.00 0.01 0.01 0.01 0.01 0.01 0.01 0.01 0.01
0.00 0.00 0.00 0.00 0.00 0.00 0.00 0.00 0.00 0.00 0.00 0.00 0.00 0.00 0.00 0.00 0.00 0.00 0.00 0.01 0.01 0.01 0.01 0.00 0.00 0.00 0.00 0.01 0.01 0.01 0.01 0.01 0.01 0.00 0.00 0.01 0.01 0.01 0.01 0.01 0.01 0.01 0.01
0.00 0.00 0.00 0.00 0.00 0.00 0.00 0.00 0.00 0.00 0.00 0.00 0.00 0.00 0.00 0.00 0.00 0.01 0.01 0.01 0.02 0.02 0.01 0.01 0.01 0.01 0.01 0.01 0.01 0.01 0.02 0.01 0.01 0.01 0.01 0.01 0.00 0.00 0.00 0.01 0.01 0.01 0.01
MSLP
1013.68 1013.74 1013.76 1013.70 1013.56 1013.34 1013.07 1012.78 1012.50 1012.28 1012.11 1012.00 1011.92 1011.84 1011.73 1011.54 1011.27 1010.90 1010.46 1009.96 1009.46 1009.00 1008.62 1008.35 1008.21 1008.19 1008.29 1008.48 1008.73 1009.02 1009.32 1009.62 1009.90 1010.15 1010.39 1010.60 1010.80 1010.99 1011.18 1011.38 1011.60 1011.85 1012.14
1013.57 1013.62 1013.64 1013.58 1013.46 1013.26 1013.03 1012.77 1012.52 1012.31 1012.16 1012.04 1011.96 1011.87 1011.75 1011.56 1011.29 1010.92 1010.47 1009.96 1009.43 1008.93 1008.48 1008.13 1007.90 1007.78 1007.78 1007.89 1008.09 1008.36 1008.67 1009.01 1009.36 1009.72 1010.05 1010.37 1010.66 1010.92 1011.16 1011.39 1011.61 1011.84 1012.09
1013.45 1013.52 1013.55 1013.52 1013.42 1013.26 1013.06 1012.83 1012.61 1012.41 1012.25 1012.13 1012.02 1011.92 1011.78 1011.58 1011.31 1010.95 1010.52 1010.03 1009.50 1008.99 1008.51 1008.10 1007.78 1007.57 1007.47 1007.47 1007.58 1007.78 1008.05 1008.38 1008.76 1009.16 1009.57 1009.97 1010.35 1010.70 1011.01 1011.30 1011.56 1011.80 1012.05
1013.35 1013.45 1013.50 1013.51 1013.44 1013.32 1013.14 1012.94 1012.74 1012.54 1012.38 1012.23 1012.10 1011.97 1011.81 1011.61 1011.34 1011.00 1010.60 1010.14 1009.65 1009.15 1008.66 1008.22 1007.84 1007.54 1007.32 1007.21 1007.19 1007.28 1007.46 1007.74 1008.08 1008.48 1008.93 1009.38 1009.84 1010.27 1010.68 1011.04 1011.37 1011.67 1011.95
1013.26 1013.40 1013.49 1013.53 1013.50 1013.40 1013.26 1013.08 1012.88 1012.69 1012.50 1012.33 1012.17 1012.01 1011.82 1011.61 1011.35 1011.04 1010.67 1010.26 1009.82 1009.35 1008.88 1008.42 1007.99 1007.61 1007.29 1007.04 1006.89 1006.84 1006.90 1007.07 1007.35 1007.71 1008.15 1008.64 1009.15 1009.66 1010.15 1010.61 1011.03 1011.41 1011.76
1013.20 1013.36 1013.49 1013.55 1013.54 1013.47 1013.35 1013.18 1012.99 1012.79 1012.59 1012.39 1012.20 1012.01 1011.80 1011.58 1011.32 1011.03 1010.71 1010.34 1009.94 1009.52 1009.07 1008.60 1008.14 1007.69 1007.27 1006.91 1006.63 1006.44 1006.36 1006.42 1006.60 1006.90 1007.31 1007.80 1008.34 1008.92 1009.49 1010.04 1010.55 1011.03 1011.47
1013.12 1013.32 1013.46 1013.54 1013.55 1013.49 1013.38 1013.22 1013.03 1012.82 1012.61 1012.39 1012.17 1011.95 1011.73 1011.49 1011.24 1010.97 1010.67 1010.34 1009.99 1009.60 1009.17 1008.71 1008.22 1007.72 1007.22 1006.76 1006.36 1006.05 1005.86 1005.80 1005.89 1006.12 1006.49 1006.97 1007.53 1008.14 1008.78 1009.41 1010.02 1010.58 1011.11
1013.02 1013.23 1013.38 1013.46 1013.48 1013.43 1013.32 1013.17 1012.98 1012.77 1012.55 1012.32 1012.08 1011.84 1011.60 1011.35 1011.10 1010.84 1010.56 1010.26 1009.93 1009.57 1009.15 1008.70 1008.19 1007.66 1007.11 1006.58 1006.10 1005.70 1005.42 1005.28 1005.30 1005.47 1005.80 1006.27 1006.83 1007.47 1008.15 1008.84 1009.51 1010.15 1010.75
1012.87 1013.08 1013.23 1013.31 1013.32 1013.28 1013.18 1013.03 1012.85 1012.64 1012.42 1012.18 1011.94 1011.69 1011.44 1011.19 1010.94 1010.68 1010.42 1010.13 1009.82 1009.46 1009.06 1008.60 1008.10 1007.55 1006.98 1006.41 1005.89 1005.45 1005.12 1004.93 1004.91 1005.05 1005.36 1005.81 1006.37 1007.01 1007.71 1008.42 1009.12 1009.81 1010.46
1012.63 1012.84 1012.98 1013.07 1013.08 1013.04 1012.95 1012.82 1012.65 1012.46 1012.25 1012.02 1011.78 1011.54 1011.29 1011.05 1010.80 1010.55 1010.29 1010.01 1009.70 1009.36 1008.96 1008.51 1008.00 1007.46 1006.88 1006.31 1005.79 1005.34 1005.01 1004.82 1004.79 1004.92 1005.22 1005.65 1006.20 1006.83 1007.52 1008.22 1008.92 1009.61 1010.26
1012.31 1012.51 1012.66 1012.74 1012.77 1012.74 1012.66 1012.55 1012.41 1012.24 1012.05 1011.85 1011.63 1011.41 1011.18 1010.95 1010.72 1010.49 1010.24 1009.98 1009.68 1009.34 1008.95 1008.50 1008.01 1007.47 1006.91 1006.36 1005.86 1005.44 1005.13 1004.97 1004.95 1005.10 1005.39 1005.82 1006.35 1006.95 1007.59 1008.25 1008.91 1009.56 1010.19
1011.90 1012.10 1012.25 1012.34 1012.38 1012.38 1012.33 1012.24 1012.13 1011.99 1011.84 1011.67 1011.49 1011.30 1011.11 1010.92 1010.72 1010.52 1010.30 1010.06 1009.78 1009.46 1009.08 1008.65 1008.17 1007.65 1007.12 1006.60 1006.14 1005.76 1005.50 1005.37 1005.38 1005.55 1005.84 1006.25 1006.75 1007.30 1007.88 1008.48 1009.07 1009.65 1010.21
1011.41 1011.61 1011.76 1011.87 1011.93 1011.95 1011.93 1011.88 1011.81 1011.71 1011.59 1011.46 1011.33 1011.19 1011.05 1010.91 1010.77 1010.62 1010.45 1010.25 1010.01 1009.71 1009.36 1008.95 1008.50 1008.01 1007.51 1007.03 1006.61 1006.28 1006.06 1005.96 1006.01 1006.18 1006.48 1006.86 1007.31 1007.81 1008.31 1008.82 1009.32 1009.81 1010.30
1010.86 1011.05 1011.21 1011.33 1011.41 1011.45 1011.46 1011.44 1011.39 1011.33 1011.25 1011.17 1011.08 1011.01 1010.93 1010.86 1010.78 1010.70 1010.60 1010.46 1010.28 1010.03 1009.73 1009.36 1008.94 1008.48 1008.02 1007.58 1007.20 1006.90 1006.72 1006.65 1006.71 1006.89 1007.17 1007.52 1007.92 1008.35 1008.78 1009.20 1009.60 1010.00 1010.39
1010.30 1010.46 1010.60 1010.72 1010.80 1010.86 1010.89 1010.88 1010.86 1010.82 1010.77 1010.72 1010.69 1010.66 1010.65 1010.65 1010.66 1010.66 1010.65 1010.59 1010.48 1010.30 1010.05 1009.74 1009.36 1008.95 1008.53 1008.13 1007.78 1007.52 1007.36 1007.31 1007.38 1007.55 1007.81 1008.12 1008.47 1008.83 1009.18 1009.52 1009.84 1010.15 1010.46
1009.76 1009.87 1009.98 1010.06 1010.13 1010.18 1010.19 1010.19 1010.17 1010.13 1010.10 1010.08 1010.07 1010.10 1010.14 1010.21 1010.30 1010.39 1010.46 1010.49 1010.46 1010.36 1010.19 1009.94 1009.62 1009.27 1008.90 1008.54 1008.23 1008.00 1007.86 1007.83 1007.89 1008.05 1008.28 1008.56 1008.86 1009.16 1009.45 1009.73 1009.98 1010.22 1010.47
1009.29 1009.33 1009.38 1009.41 1009.43 1009.44 1009.42 1009.39 1009.35 1009.30 1009.27 1009.25 1009.26 1009.31 1009.39 1009.52 1009.66 1009.82 1009.96 1010.07 1010.13 1010.11 1010.02 1009.84 1009.60 1009.31 1009.00 1008.70 1008.44 1008.24 1008.13 1008.10 1008.17 1008.32 1008.53 1008.78 1009.04 1009.31 1009.56 1009.79 1010.00 1010.20 1010.41
1008.97 1008.91 1008.86 1008.82 1008.77 1008.72 1008.65 1008.57 1008.49 1008.42 1008.35 1008.32 1008.32 1008.37 1008.47 1008.62 1008.79 1008.99 1009.18 1009.35 1009.47 1009.52 1009.50 1009.40 1009.23 1009.01 1008.77 1008.54 1008.33 1008.18 1008.11 1008.11 1008.19 1008.34 1008.54 1008.77 1009.02 1009.26 1009.49 1009.70 1009.89 1010.08 1010.27
1008.83 1008.67 1008.52 1008.38 1008.25 1008.12 1007.99 1007.86 1007.73 1007.61 1007.50 1007.43 1007.41 1007.43 1007.51 1007.65 1007.82 1008.02 1008.22 1008.41 1008.55 1008.64 1008.67 1008.63 1008.53 1008.39 1008.23 1008.06 1007.93 1007.84 1007.81 1007.85 1007.95 1008.12 1008.32 1008.55 1008.80 1009.03 1009.26 1009.46 1009.66 1009.85 1010.05
1008.93 1008.66 1008.41 1008.18 1007.97 1007.77 1007.58 1007.39 1007.21 1007.04 1006.89 1006.78 1006.71 1006.68 1006.71 1006.80 1006.92 1007.08 1007.24 1007.40 1007.54 1007.63 1007.68 1007.67 1007.62 1007.54 1007.44 1007.35 1007.29 1007.26 1007.29 1007.37 1007.51 1007.70 1007.92 1008.16 1008.40 1008.65 1008.88 1009.10 1009.30 1009.51 1009.73
1009.26 1008.91 1008.59 1008.29 1008.02 1007.76 1007.52 1007.29 1007.06 1006.86 1006.67 1006.51 1006.38 1006.30 1006.26 1006.26 1006.30 1006.37 1006.46 1006.55 1006.62 1006.68 1006.70 1006.70 1006.66 1006.62 1006.57 1006.53 1006.52 1006.55 1006.63 1006.76 1006.93 1007.14 1007.37 1007.62 1007.87 1008.12 1008.37 1008.60 1008.83 1009.06 1009.30
1009.81 1009.42 1009.05 1008.72 1008.41 1008.13 1007.86 1007.61 1007.38 1007.15 1006.93 1006.73 1006.55 1006.39 1006.27 1006.17 1006.11 1006.06 1006.03 1006.02 1005.99 1005.97 1005.93 1005.88 1005.83 1005.78 1005.74 1005.73 1005.76 1005.82 1005.93 1006.08 1006.26 1006.48 1006.72 1006.98 1007.23 1007.49 1007.74 1007.99 1008.24 1008.50 1008.76
1010.52 1010.13 1009.76 1009.43 1009.13 1008.85 1008.59 1008.35 1008.12 1007.89 1007.66 1007.43 1007.21 1006.99 1006.78 1006.59 1006.41 1006.24 1006.08 1005.93 1005.78 1005.64 1005.51 1005.38 1005.27 1005.18 1005.12 1005.09 1005.11 1005.17 1005.27 1005.41 1005.58 1005.79 1006.02 1006.25 1006.50 1006.75 1007.01 1007.27 1007.54 1007.82 1008.12
1011.28 1010.93 1010.61 1010.31 1010.05 1009.81 1009.58 1009.37 1009.17 1008.95 1008.73 1008.49 1008.24 1007.98 1007.70 1007.42 1007.14 1006.85 1006.56 1006.28 1006.00 1005.74 1005.49 1005.26 1005.06 1004.89 1004.77 1004.68 1004.64 1004.65 1004.70 1004.80 1004.93 1005.09 1005.27 1005.48 1005.70 1005.94 1006.19 1006.46 1006.75 1007.06 1007.38
1012.00 1011.72 1011.46 1011.23 1011.02 1010.83 1010.66 1010.49 1010.32 1010.13 1009.93 1009.70 1009.44 1009.15 1008.83 1008.49 1008.13 1007.75 1007.36 1006.96 1006.57 1006.19 1005.83 1005.49 1005.18 1004.91 1004.69 1004.51 1004.38 1004.30 1004.26 1004.27 1004.32 1004.40 1004.52 1004.67 1004.85 1005.06 1005.30 1005.58 1005.89 1006.22 1006.58
1012.59 1012.39 1012.20 1012.04 1011.89 1011.75 1011.63 1011.50 1011.37 1011.21 1011.03 1010.82 1010.57 1010.27 1009.94 1009.57 1009.17 1008.74 1008.28 1007.81 1007.34 1006.87 1006.41 1005.97 1005.56 1005.18 1004.84 1004.54 1004.29 1004.09 1003.93 1003.82 1003.75 1003.74 1003.76 1003.84 1003.96 1004.14 1004.37 1004.64 1004.97 1005.33 1005.72
Thickness
5689 5685 5681 5676 5673 5669 5666 5664 5662 5660 5658 5656 5656 5655 5654 5654 5655 5656 5657 5658 5659 5661 5664 5667 5669 5673 5676 5679 5682 5684 5686 5686 5684 5688 5694 5697 5699 5701 5702 5704 5706 5707 5706
5692 5688 5683 5678 5674 5670 5667 5665 5663 5661 5660 5658 5656 5654 5654 5653 5654 5654 5654 5656 5656 5658 5660 5663 5665 5669 5671 5674 5676 5679 5681 5683 5682 5681 5685 5689 5691 5694 5695 5696 5698 5699 5699
5695 5689 5684 5680 5675 5671 5669 5667 5665 5663 5661 5659 5656 5654 5653 5653 5652 5653 5653 5654 5655 5656 5658 5659 5661 5664 5665 5668 5671 5673 5676 5679 5679 5678 5679 5682 5684 5687 5687 5689 5691 5692 5692
5697 5691 5686 5682 5678 5674 5671 5668 5666 5664 5662 5659 5657 5655 5653 5652 5651 5651 5651 5652 5653 5655 5656 5657 5659 5660 5661 5663 5666 5668 5671 5671 5673 5672 5673 5674 5676 5679 5680 5680 5680 5682 5684
5699 5693 5688 5684 5680 5676 5673 5670 5667 5665 5663 5661 5658 5656 5654 5652 5650 5649 5650 5651 5652 5653 5654 5656 5657 5658 5659 5660 5662 5663 5665 5665 5666 5665 5666 5667 5669 5670 5672 5674 5674 5674 5676
5701 5695 5691 5686 5682 5678 5674 5672 5669 5666 5664 5661 5659 5657 5654 5652 5651 5650 5650 5650 5651 5652 5652 5653 5655 5656 5657 5658 5659 5660 5662 5661 5660 5660 5660 5661 5664 5667 5668 5669 5668 5668 5667
5703 5698 5693 5688 5683 5679 5677 5673 5670 5667 5665 5662 5660 5657 5655 5653 5652 5651 5651 5650 5651 5651 5652 5651 5653 5654 5653 5653 5655 5657 5657 5658 5659 5658 5657 5659 5661 5664 5664 5664 5664 5664 5665
5704 5699 5695 5690 5685 5681 5677 5674 5671 5669 5666 5663 5661 5659 5656 5655 5653 5652 5651 5651 5651 5651 5651 5651 5649 5649 5650 5650 5650 5652 5653 5654 5655 5656 5657 5658 5659 5661 5663 5663 5662 5660 5659
5704 5700 5696 5691 5686 5682 5678 5675 5673 5670 5667 5665 5663 5661 5658 5656 5654 5653 5651 5650 5650 5650 5650 5649 5648 5647 5647 5648 5648 5649 5649 5650 5652 5653 5655 5655 5656 5658 5659 5657 5655 5653 5651
5705 5702 5698 5693 5688 5684 5680 5677 5674 5672 5669 5667 5665 5663 5660 5657 5655 5653 5651 5650 5648 5647 5647 5646 5645 5645 5645 5646 5646 5646 5645 5646 5648 5649 5650 5651 5653 5654 5655 5655 5654 5651 5648
5707 5703 5699 5695 5691 5687 5683 5680 5676 5673 5670 5668 5666 5664 5662 5659 5657 5654 5652 5649 5646 5645 5645 5644 5643 5644 5644 5644 5644 5644 5644 5645 5645 5646 5646 5647 5648 5650 5650 5651 5652 5650 5648
5706 5702 5698 5695 5693 5690 5684 5681 5678 5674 5671 5668 5666 5665 5663 5661 5658 5655 5653 5650 5647 5644 5643 5643 5642 5642 5642 5643 5643 5643 5644 5643 5642 5642 5641 5641 5643 5644 5645 5646 5647 5647 5647
5704 5700 5698 5696 5693 5690 5685 5681 5678 5675 5671 5669 5667 5664 5663 5662 5659 5656 5653 5651 5648 5645 5644 5643 5642 5642 5642 5641 5642 5642 5641 5640 5639 5638 5637 5638 5639 5640 5641 5641 5641 5641 5641
5702 5699 5698 5695 5693 5691 5687 5683 5679 5675 5672 5670 5667 5665 5663 5662 5659 5656 5653 5650 5648 5646 5644 5644 5643 5643 5642 5641 5641 5640 5640 5639 5638 5637 5636 5636 5636 5636 5636 5636 5635 5635 5634
5700 5699 5697 5695 5692 5689 5687 5684 5681 5678 5675 5670 5668 5666 5662 5660 5658 5656 5652 5651 5647 5645 5643 5643 5643 5642 5642 5641 5641 5641 5640 5639 5637 5636 5635 5634 5633 5633 5632 5633 5632 5631 5629
5697 5696 5694 5692 5690 5688 5685 5683 5683 5680 5678 5674 5671 5667 5665 5662 5659 5656 5653 5650 5648 5645 5642 5641 5641 5641 5641 5641 5640 5639 5639 5638 5636 5635 5634 5633 5631 5630 5629 5629 5629 5627 5626
5692 5690 5689 5688 5686 5684 5682 5680 5678 5678 5676 5673 5670 5667 5664 5662 5659 5656 5652 5649 5647 5644 5640 5641 5641 5641 5642 5641 5641 5639 5638 5638 5637 5635 5633 5632 5631 5630 5628 5627 5627 5625 5624
5686 5685 5683 5682 5680 5680 5679 5678 5676 5674 5673 5672 5671 5668 5665 5661 5658 5654 5650 5645 5644 5642 5641 5642 5642 5642 5642 5641 5641 5639 5639 5637 5636 5635 5633 5632 5631 5629 5628 5627 5625 5624 5623
5678 5677 5676 5675 5675 5674 5674 5673 5672 5672 5671 5670 5670 5669 5665 5660 5655 5650 5646 5642 5643 5643 5644 5643 5643 5643 5643 5642 5641 5640 5638 5637 5636 5635 5633 5632 5631 5629 5628 5626 5625 5624 5623
5668 5669 5668 5667 5667 5667 5666 5666 5665 5665 5665 5665 5664 5663 5661 5654 5650 5647 5643 5642 5642 5643 5644 5644 5644 5644 5643 5642 5641 5639 5637 5636 5635 5634 5633 5631 5630 5629 5627 5626 5624 5623 5621
5657 5658 5659 5658 5657 5657 5656 5656 5656 5656 5656 5657 5657 5659 5656 5652 5650 5649 5647 5644 5643 5643 5643 5643 5644 5643 5643 5641 5639 5638 5636 5635 5634 5633 5631 5630 5629 5628 5627 5625 5624 5622 5621
5644 5645 5646 5645 5645 5645 5645 5646 5646 5645 5645 5646 5647 5649 5649 5646 5645 5645 5644 5643 5643 5643 5642 5642 5641 5641 5640 5639 5637 5636 5634 5632 5632 5631 5630 5629 5628 5626 5625 5623 5622 5620 5619
5630 5631 5631 5631 5631 5631 5631 5631 5631 5630 5631 5631 5633 5633 5633 5632 5633 5633 5634 5635 5635 5636 5636 5636 5635 5635 5635 5635 5634 5633 5631 5630 5629 5629 5627 5626 5625 5624 5622 5621 5619 5618 5616
5615 5615 5615 5615 5614 5614 5613 5613 5613 5613 5613 5614 5614 5615 5615 5615 5616 5618 5619 5620 5621 5623 5625 5626 5626 5627 5626 5626 5626 5626 5625 5625 5624 5624 5624 5623 5622 5620 5619 5618 5617 5616 5614
5599 5598 5597 5596 5596 5595 5595 5595 5595 5594 5594 5594 5594 5594 5594 5596 5597 5599 5601 5602 5604 5606 5608 5611 5612 5614 5615 5616 5616 5616 5616 5616 5616 5616 5617 5616 5616 5616 5615 5614 5612 5611 5610
5583 5581 5580 5578 5577 5577 5576 5575 5575 5574 5574 5574 5573 5572 5572 5573 5575 5576 5578 5580 5583 5586 5589 5592 5594 5596 5599 5601 5603 5604 5605 5606 5606 5606 5606 5607 5608 5608 5608 5607 5607 5606 5605